Waarnemingen

Advertentie
Mijn weer
Geneve-Cointrin, Zwitserland (6700): temperatuur & dauwpunt: 12.11.2019 16:00:00 - 18.11.2019 16:00:00 (CET)Geneve-Cointrin, Zwitserland (6700): temperatuur 5cm: 12.11.2019 16:00:00 - 18.11.2019 16:00:00 (CET)Geneve-Cointrin, Zwitserland (6700): windsnelheid & windstoten: 12.11.2019 16:00:00 - 18.11.2019 16:00:00 (CET)Geneve-Cointrin, Zwitserland (6700): windrichting: 12.11.2019 16:00:00 - 18.11.2019 16:00:00 (CET)Geneve-Cointrin, Zwitserland (6700): luchtdruk: 12.11.2019 16:00:00 - 18.11.2019 16:00:00 (CET)Geneve-Cointrin, Zwitserland (6700): zicht: 12.11.2019 16:00:00 - 18.11.2019 16:00:00 (CET)Geneve-Cointrin, Zwitserland (6700): Zonneschijnduur: 12.11.2019 16:00:00 - 18.11.2019 16:00:00 (CET)Geneve-Cointrin, Zwitserland (6700): neerslag: 12.11.2019 16:00:00 - 18.11.2019 16:00:00 (CET)
Datum & Tijd tt [°C] td [°C] tt 5cm [°C] ff [km/u] ff [kn] fx [km/u] fx [kn] dd ppp [hPa] vv [km] sd [min] rr [mm]
18.11.2019 16:00:00 - - - - - - - - - - - -
18.11.2019 15:00:00 7,8 1,3 9,2 6 3 17 9 ZW 1013,5 - 60 0,0
18.11.2019 14:00:00 7,8 1,2 6,5 6 4 16 9 ZW 1013,1 - 56 0,0
18.11.2019 13:00:00 7,8 1,6 10,3 6 3 17 9 ZZO 1013,0 50 60 0,0
18.11.2019 12:00:00 6,3 0,6 8,2 5 3 16 8 Z 1013,3 - 57 0,0
18.11.2019 11:00:00 5,2 2,3 5,6 8 5 14 7 ZW 1014,0 - 60 0,0
18.11.2019 10:00:00 3,8 2,0 4,2 3 2 12 7 W 1014,0 50 6 0,0
18.11.2019 09:00:00 2,8 1,7 2,7 3 2 6 3 WNW 1014,0 - 0 0,0
18.11.2019 08:00:00 2,3 1,7 1,9 4 2 7 4 WZW 1013,6 - 0 0,0
18.11.2019 07:00:00 2,2 1,4 1,7 5 3 9 5 WZW 1013,2 20 0 0,0
18.11.2019 06:00:00 2,0 1,6 1,5 4 2 8 4 WNW 1012,3 - 0 0,0
18.11.2019 05:00:00 2,2 1,7 2,0 4 2 8 4 W 1011,7 - 0 0,3
18.11.2019 04:00:00 2,3 1,8 2,1 5 3 8 5 WZW 1011,2 - 0 0,4
18.11.2019 03:00:00 2,2 1,7 2,0 4 2 8 4 WZW 1010,7 - 0 0,3
18.11.2019 02:00:00 2,3 1,7 2,0 4 2 9 5 W 1010,2 - 0 0,2
18.11.2019 01:00:00 2,4 1,7 2,1 5 3 11 6 WZW 1009,9 - 0 0,4
18.11.2019 00:00:00 2,7 2,0 2,3 6 3 14 8 WZW 1009,6 - 0 0,3
17.11.2019 23:00:00 2,7 1,9 2,3 10 5 18 10 WZW 1009,2 - 0 0,5
17.11.2019 22:00:00 3,4 2,1 2,6 10 6 18 10 WZW 1008,8 12 0 0,3
17.11.2019 21:00:00 3,1 2,0 2,5 8 4 20 11 WZW 1008,5 - 0 0,0
17.11.2019 20:00:00 3,3 2,2 2,5 4 2 16 9 W 1008,0 - 0 0,0
17.11.2019 19:00:00 3,2 2,4 2,6 10 5 19 10 Z 1007,7 25 0 0,0
17.11.2019 18:00:00 3,5 3,0 3,0 5 3 15 8 W 1007,3 - 0 0,1
17.11.2019 17:00:00 3,9 3,2 3,6 10 5 15 8 ZW 1006,8 - 0 0,5
17.11.2019 16:00:00 3,8 3,2 4,1 4 2 10 5 OZO 1006,4 11 0 0,1
17.11.2019 15:00:00 4,2 3,3 4,4 5 3 14 8 OZO 1006,1 - 0 0,6
17.11.2019 14:00:00 3,8 3,2 3,9 8 5 17 9 OZO 1005,9 - 0 0,7
17.11.2019 13:00:00 4,3 3,6 4,3 9 5 13 7 Z 1005,6 4,9 0 0,6
17.11.2019 12:00:00 5,0 3,2 4,8 6 3 8 5 WZW 1005,9 - 0 0,6
17.11.2019 11:00:00 4,6 4,0 4,4 2 1 11 6 N 1006,3 - 0 0,7
17.11.2019 10:00:00 4,7 3,2 4,1 6 3 28 15 N 1006,4 6 0 0,3
17.11.2019 09:00:00 4,5 2,8 3,8 8 4 27 14 N 1006,6 - 0 0,0
17.11.2019 08:00:00 2,0 1,2 1,5 5 3 15 8 NNW 1007,4 - 0 0,0
17.11.2019 07:00:00 1,4 0,4 0,1 4 2 8 4 ZW 1007,5 10 0 0,0
17.11.2019 06:00:00 0,5 -0,1 -0,5 3 2 8 4 W 1008,5 - 0 0,0
17.11.2019 05:00:00 0,8 0,1 0,1 5 3 8 5 W 1009,0 - 0 0,0
17.11.2019 04:00:00 0,9 0,0 -0,3 5 3 7 4 ZW 1009,7 - 0 0,0
17.11.2019 03:00:00 -0,2 -0,9 -1,6 3 1 8 5 W 1010,7 - 0 0,0
17.11.2019 02:00:00 0,5 0,0 -1,4 5 3 6 4 ZW 1011,2 - 0 0,0
17.11.2019 01:00:00 0,2 -0,5 -2,0 2 1 7 4 W 1011,9 - 0 0,0
17.11.2019 00:00:00 0,0 -0,4 -1,9 4 2 11 6 WZW 1012,4 - 0 0,0
16.11.2019 23:00:00 0,7 0,3 -1,7 1 1 12 6 WNW 1012,7 - 0 0,0
16.11.2019 22:00:00 1,1 0,6 -1,2 1 1 12 7 NW 1012,6 18 0 0,0
16.11.2019 21:00:00 1,1 0,3 -1,6 3 2 11 6 NNO 1012,4 - 0 0,0
16.11.2019 20:00:00 2,0 0,7 -1,1 2 1 10 5 WNW 1012,2 - 0 0,0
16.11.2019 19:00:00 2,6 0,8 0,0 5 3 11 6 WNW 1012,0 30 0 0,0
16.11.2019 18:00:00 4,1 1,8 0,2 5 3 9 5 N 1011,3 - 0 0,0
16.11.2019 17:00:00 6,0 1,8 2,4 4 2 15 8 N 1010,3 - 38 0,0
16.11.2019 16:00:00 7,9 1,1 8,5 5 3 12 6 NNO 1010,1 30 60 0,0
16.11.2019 15:00:00 8,9 1,2 10,0 5 3 17 9 WNW 1009,6 - 59 0,0
16.11.2019 14:00:00 7,8 1,4 6,6 8 5 18 10 ZW 1010,0 - 37 0,0
16.11.2019 13:00:00 7,4 2,0 8,0 9 5 26 14 ZW 1010,5 30 42 0,0
16.11.2019 12:00:00 6,6 2,0 6,0 20 11 29 16 ZW 1011,2 - 15 0,0
16.11.2019 11:00:00 5,6 3,0 6,0 11 6 18 10 ZW 1011,1 - 39 0,0
16.11.2019 10:00:00 4,6 2,7 5,2 5 3 11 6 WNW 1010,6 25 0 0,0
16.11.2019 09:00:00 4,0 2,8 3,6 6 4 13 7 WZW 1010,4 - 0 0,0
16.11.2019 08:00:00 3,4 2,5 2,7 6 3 13 7 WZW 1009,7 - 0 0,0
16.11.2019 07:00:00 2,9 2,1 2,1 6 3 9 5 ZW 1008,6 12 0 0,0
16.11.2019 06:00:00 1,9 1,7 -0,1 6 4 9 5 WZW 1007,7 - 0 0,0
16.11.2019 05:00:00 1,4 1,2 0,2 4 2 9 5 W 1007,2 - 0 0,0
16.11.2019 04:00:00 2,6 1,6 1,5 3 2 10 6 ZZW 1006,8 - 0 0,1
16.11.2019 03:00:00 2,3 1,4 1,7 3 2 7 4 WZW 1006,8 - 0 0,0
16.11.2019 02:00:00 1,9 1,3 0,9 4 2 8 4 W 1005,7 - 0 0,0
16.11.2019 01:00:00 2,1 1,1 1,3 5 3 8 4 W 1005,6 - 0 0,0
16.11.2019 00:00:00 2,0 0,9 1,3 5 3 8 4 WZW 1005,6 - 0 0,0
15.11.2019 23:00:00 1,8 0,6 0,1 4 2 5 3 WNW 1005,0 - 0 0,0
15.11.2019 22:00:00 2,2 1,0 -0,1 3 2 5 3 ZW 1004,7 30 0 0,0
15.11.2019 21:00:00 2,3 1,0 -0,4 3 1 12 6 WZW 1004,4 - 0 0,0
15.11.2019 20:00:00 1,9 1,1 -0,2 3 2 6 3 WNW 1003,8 - 0 0,0
15.11.2019 19:00:00 4,5 1,5 1,0 4 2 9 5 NW 1003,0 50 0 0,0
15.11.2019 18:00:00 4,5 1,9 2,7 3 1 9 5 N 1002,8 - 0 0,0
15.11.2019 17:00:00 5,9 1,5 3,0 4 2 9 5 WNW 1002,0 - 25 0,0
15.11.2019 16:00:00 7,7 1,0 8,3 3 2 22 12 WNW 1001,4 50 51 0,0
15.11.2019 15:00:00 8,0 0,9 8,9 8 4 23 12 OZO 1000,9 - 60 0,0
15.11.2019 14:00:00 7,3 1,9 5,8 9 5 18 10 ZW 1000,9 - 59 0,0
15.11.2019 13:00:00 7,1 1,1 8,7 13 7 22 12 ZZW 1001,2 50 56 0,0
15.11.2019 12:00:00 6,8 1,9 8,5 9 5 20 11 ZW 1001,5 - 58 0,0
15.11.2019 11:00:00 5,9 1,4 6,3 11 6 26 14 W 1001,8 - 60 0,0
15.11.2019 10:00:00 5,0 1,5 5,8 12 6 25 13 Z 1001,7 40 60 0,0
15.11.2019 09:00:00 3,3 1,2 3,1 20 11 31 17 ZW 1001,8 - 20 0,0
15.11.2019 08:00:00 2,6 0,7 1,2 19 10 37 20 ZW 1001,5 - 0 0,0
15.11.2019 07:00:00 2,2 0,8 1,1 25 14 34 18 ZW 1000,2 25 0 0,0
15.11.2019 06:00:00 2,5 1,3 1,9 20 11 32 18 ZW 999,0 - 0 0,1
15.11.2019 05:00:00 1,9 1,3 1,6 8 4 24 13 W 998,0 - 0 1,6
15.11.2019 04:00:00 2,9 2,0 2,4 18 10 27 15 ZW 996,6 - 0 2,1
15.11.2019 03:00:00 4,0 2,6 3,3 10 6 19 11 WZW 995,6 - 0 0,5
15.11.2019 02:00:00 3,9 2,9 3,5 10 5 19 10 WZW 995,3 - 0 0,0
15.11.2019 01:00:00 3,8 2,9 3,0 9 5 11 6 ZW 995,5 - 0 0,0
15.11.2019 00:00:00 3,6 2,8 2,8 4 2 7 4 NW 995,6 - 0 0,0
14.11.2019 23:00:00 4,1 2,8 2,9 3 2 10 5 ZZW 996,4 - 0 0,0
14.11.2019 22:00:00 3,9 3,0 3,2 5 3 8 4 NW 996,7 20 0 0,0
14.11.2019 21:00:00 4,3 3,0 3,5 4 2 17 9 ZZW 996,8 - 0 0,0
14.11.2019 20:00:00 4,5 3,1 4,0 9 5 16 8 W 997,6 - 0 0,0
14.11.2019 19:00:00 4,7 3,0 3,7 5 3 19 11 ZW 997,6 20 0 0,0
14.11.2019 18:00:00 4,9 2,8 3,5 7 4 14 7 ZZW 997,8 - 0 0,0
14.11.2019 17:00:00 4,4 3,2 3,8 6 3 13 7 WNW 998,3 - 0 0,0
14.11.2019 16:00:00 4,9 3,1 4,1 1 1 10 5 N 998,3 25 0 0,0
14.11.2019 15:00:00 4,9 3,0 4,3 5 3 14 8 NNO 999,2 - 0 0,1
14.11.2019 14:00:00 5,5 2,0 5,0 2 1 9 5 NW 1000,6 - 0 0,0
14.11.2019 13:00:00 5,3 2,0 5,1 5 3 14 8 W 1000,9 25 0 0,0
14.11.2019 12:00:00 5,0 2,4 4,8 7 4 17 9 N 1001,6 - 0 0,0
14.11.2019 11:00:00 4,9 1,6 4,3 10 6 23 12 NO 1002,2 - 0 0,0
14.11.2019 10:00:00 3,5 1,7 3,3 7 4 21 12 O 1003,1 9 0 0,0
14.11.2019 09:00:00 2,7 0,7 1,9 6 4 14 7 W 1004,5 - 0 0,0
14.11.2019 08:00:00 2,0 0,6 1,0 3 2 7 4 ZW 1003,8 - 0 0,0
14.11.2019 07:00:00 1,3 0,5 0,0 6 3 12 6 NW 1003,1 25 0 0,0
14.11.2019 06:00:00 1,1 0,3 -0,1 1 1 11 6 ZW 1003,2 - 0 0,0
14.11.2019 05:00:00 0,4 -0,1 -0,5 2 1 13 7 N 1003,4 - 0 0,0
14.11.2019 04:00:00 0,3 -0,1 -1,3 1 0 12 7 NNW 1003,8 - 0 0,0
14.11.2019 03:00:00 -0,2 -0,7 -1,7 3 1 10 6 NW 1004,7 - 0 0,0
14.11.2019 02:00:00 -0,6 -0,8 -3,0 3 2 16 9 W 1005,6 - 0 0,0
14.11.2019 01:00:00 -0,2 -0,6 -2,9 3 1 12 6 NNW 1006,0 - 0 0,0
14.11.2019 00:00:00 -0,1 -0,6 -3,2 1 0 9 5 Z 1006,8 - 0 0,0
13.11.2019 23:00:00 0,8 -0,6 -2,2 5 3 9 5 WZW 1007,1 - 0 0,0
13.11.2019 22:00:00 0,8 0,0 -2,4 1 1 11 6 WNW 1007,7 35 0 0,0
13.11.2019 21:00:00 1,4 0,3 -1,3 6 3 8 4 NW 1008,4 - 0 0,0
13.11.2019 20:00:00 3,3 0,5 -0,8 4 2 14 8 WNW 1008,3 - 0 0,0
13.11.2019 19:00:00 4,3 0,9 2,0 8 4 13 7 WZW 1008,0 40 0 0,0
13.11.2019 18:00:00 6,7 0,2 2,9 9 5 12 6 WZW 1007,4 - 0 0,0
13.11.2019 17:00:00 6,9 0,7 5,0 4 2 10 5 W 1007,1 - 0 0,0
13.11.2019 16:00:00 8,0 0,1 7,5 6 4 15 8 W 1006,9 45 0 0,0
13.11.2019 15:00:00 8,4 -1,7 9,2 6 3 19 10 W 1006,6 - 43 0,0
13.11.2019 14:00:00 8,9 -0,5 7,7 4 2 16 8 ZZO 1006,5 - 60 0,0
13.11.2019 13:00:00 7,7 0,0 10,4 3 2 13 7 Z 1007,2 40 60 0,0
13.11.2019 12:00:00 6,9 1,0 9,5 3 1 14 8 ZZW 1007,6 - 46 0,0
13.11.2019 11:00:00 5,4 0,8 6,1 6 3 10 6 W 1007,8 - 50 0,0
13.11.2019 10:00:00 4,4 1,0 5,8 6 3 10 5 ZZW 1007,7 40 60 0,0
13.11.2019 09:00:00 2,4 0,7 1,9 4 2 8 4 W 1007,5 - 31 0,0
13.11.2019 08:00:00 0,3 -0,4 -1,8 5 3 8 5 W 1007,3 - 0 0,0
13.11.2019 07:00:00 0,4 -0,1 -3,0 3 1 10 6 N 1006,6 25 0 0,0
13.11.2019 06:00:00 1,4 0,8 -1,6 4 2 9 5 ZZW 1005,9 - 0 0,0
13.11.2019 05:00:00 2,2 1,6 1,4 3 2 7 4 W 1006,0 - 0 0,0
13.11.2019 04:00:00 2,4 1,8 1,4 2 1 11 6 WNW 1005,7 - 0 0,0
13.11.2019 03:00:00 2,5 1,7 1,8 4 2 11 6 NW 1005,7 - 0 0,0
13.11.2019 02:00:00 2,3 1,3 1,3 5 3 8 5 ZW 1005,8 - 0 0,0
13.11.2019 01:00:00 1,3 0,2 -0,2 3 2 12 7 N 1006,1 - 0 0,0
13.11.2019 00:00:00 -0,9 -1,6 -2,5 3 1 11 6 NW 1006,2 - 0 0,0
12.11.2019 23:00:00 0,3 -0,5 -2,5 6 3 11 6 NW 1006,3 - 0 0,0
12.11.2019 22:00:00 1,4 0,2 -2,1 3 2 10 5 OZO 1006,4 30 0 0,0
12.11.2019 21:00:00 2,5 0,6 -1,7 4 2 8 4 NO 1006,4 - 0 0,0
12.11.2019 20:00:00 2,5 1,0 -0,8 3 2 10 5 ZW 1007,1 - 0 0,0
12.11.2019 19:00:00 4,5 0,9 0,4 4 2 10 6 W 1007,5 30 0 0,0
12.11.2019 18:00:00 5,3 1,0 2,0 7 4 11 6 W 1007,6 - 0 0,0
12.11.2019 17:00:00 7,5 0,4 5,0 7 4 16 9 WZW 1007,1 - 11 0,0
12.11.2019 16:00:00 8,8 0,5 8,2 10 5 22 12 WZW 1007,0 35 30 0,0

tt = temperatuur
td = dauwpunt
tt 5cm = temperatuur 5cm
ff = windsnelheid
fx = windstoten
dd = windrichting
ppp = luchtdruk
vv = zicht
sd = Zonneschijnduur
rr = neerslag

Weerstations in de omgeving